sat.trackr.live / text

‹ back to catalog

STARLINK-37621

NORAD 69830 · 2026-154M

PAYLOAD ACTIVE UNKNOWN

§ Identity

Operator
Country
US
Launch date
2026-07-05
Launch site
AFETR
Launch vehicle
Mass (kg)
RCS (m²)

Purposes: comms

External: N2YO · Heavens-Above · Gunter

§ Orbital elements

Epoch: 2026-09-19T16:38:23.451936Z

Period
93.85 min
Inclination
53.1580°
Eccentricity
0.0001179
Mean motion
15.34414261 rev/d
Perigee alt
461.9 km
Apogee alt
463.5 km
Semi-major
6,840.8 km
B*
4.4266e-4
RAAN
335.5485°
Arg perigee
91.7684°
Mean anomaly
268.3454°
Rev number
1,311

§ Raw data

STARLINK-376211 69830U 26154M   26262.69332699  .00014616  00000+0  44266-3 0  99912 69830  53.1580 335.5485 0001179  91.7684 268.3454 15.34414261 13115

JSON: /api/v1/satellites/69830 · /tle

For live sub-satellite position, see the globe view (requires WebGL).

§ Visibility from observer

Set your observer location to see the next 7 days of passes ≥ 10°. The values pass through the URL so the page stays shareable.

No JS? Fill the form by hand. The geolocation button needs JavaScript.